Regional Weather Roundup
Issued by NWS

Home | Current Version | Previous Version | Text Only | Print | Product List | Glossary Off
Versions: 1 2 3 4 5 6 7 8 9 10 11 12 13 14 15 16 17 18 19 20 21 22 23 24 25 26 27 28 29 30 31 32 33 34 35 36 37 38 39 40 41 42 43 44 45 46 47 48 49 50

000
ASUS45 KPSR 251900
RWRAZ

PRELIMINARY ARIZONA REGIONAL HOURLY WEATHER ROUNDUP
NATIONAL WEATHER SERVICE PHOENIX AZ
1200 PM MST SAT OCT 25 2014

NOTE: FAIR INDICATES FEW OR NO CLOUDS BELOW 12,000 FEET WITH NO
SIGNIFICANT WEATHER AND/OR OBSTRUCTIONS TO VISIBILITY.

AZZ001>003-036-252000-
NORTHWEST ARIZONA

CITY           SKY/WX    TMP DP  RH WIND       PRES   REMARKS
KINGMAN        MOSUNNY   81  40  23 SW18G24   30.14F
$$

AZZ004>008-015-016-018-252000-
NORTH CENTRAL ARIZONA

CITY           SKY/WX    TMP DP  RH WIND       PRES   REMARKS
GRAND CANYON   PTSUNNY   68  41  37 SW15G28   30.33F
PRESCOTT       MOSUNNY   75  46  35 S13G20    30.25F
FLAGSTAFF      PTSUNNY   66  41  40 SW16G24   30.37F
PAYSON         SUNNY     77  46  33 S9G15     30.29F
PAGE           SUNNY     72  34  24 E6        30.19F
$$

AZZ009>014-017-252000-
NORTHEAST ARIZONA

CITY           SKY/WX    TMP DP  RH WIND       PRES   REMARKS
WINSLOW        NOT AVBL
SAINT JOHNS    SUNNY     74  39  28 CALM      30.29F
WINDOW ROCK    SUNNY     74  36  25 SW16      30.35F
$$

AZZ023-252000-
GREATER PHOENIX AREA

CITY           SKY/WX    TMP DP  RH WIND       PRES   REMARKS
PHOENIX        MOSUNNY   89  48  24 CALM      29.99F
GLENDALE       MOSUNNY   88  52  29 VRB5      30.02F
DEER VALLEY    SUNNY     87  46  24 CALM      30.01F
SCOTTSDALE     SUNNY     88  49  25 CALM      30.02F
MESA-GATEWAY   MOSUNNY   86  52  30 SW5       30.03F
CHANDLER       MOSUNNY   86  50  28 CALM      30.01F
$$

AZZ027-028-252000-
SOUTHWEST MARICOPA COUNTY AND PINAL COUNTY

CITY           SKY/WX    TMP DP  RH WIND       PRES   REMARKS
CASA GRANDE    MOSUNNY   88  48  25 CALM      30.03F
$$

AZZ503-504-507>509-252000-
SOUTHEAST ARIZONA

CITY           SKY/WX    TMP DP  RH WIND       PRES   REMARKS
TUCSON         SUNNY     91  44  19 SE3       30.10F
DAVIS-MONTHAN  SUNNY     90  47  22 VRB2      30.08F
NOGALES        SUNNY     87  46  24 CALM      30.18F
SIERRA VISTA   SUNNY     83  43  24 E6        30.24F
SAFFORD        SUNNY     81  43  26 VRB3      30.16F
$$

AZZ020-021-025-026-031-252000-
SOUTHWEST ARIZONA

CITY           SKY/WX    TMP DP  RH WIND       PRES   REMARKS
YUMA           NOT AVBL
$$

CAZ031-033-041-043-047-048-061-252000-
SOUTHERN CALIFORNIA

CITY           SKY/WX    TMP DP  RH WIND       PRES   REMARKS
DOWNTOWN L.A.  MOSUNNY   78  57  48 VRB3      30.04F
L.A. AIRPORT   PTSUNNY   72  64  75 W12       30.06S
SAN DIEGO      MOSUNNY   76  61  59 SW6       30.06F
BURBANK        PTSUNNY   78  41  26 S7        30.06S
ONTARIO        MOSUNNY   83  38  20 SW8       30.05F
RIVERSIDE      SUNNY     81  40  23 W5        30.05F
PALM SPRINGS   SUNNY     90  47  22 SE10      29.98F
EL CENTRO NAS  MOSUNNY   92  46  20 VRB3      29.95F
IMPERIAL       SUNNY     91  49  23 SW3       29.94F
BLYTHE         SUNNY     89  44  20 VRB3      29.98F
$$

NVZ020-UTZ003-252000-
SOUTHERN NEVADA-UTAH

CITY           SKY/WX    TMP DP  RH WIND       PRES   REMARKS
LAS VEGAS      NOT AVBL
SALT LAKE CITY MOSUNNY   76  30  18 S21G31    30.02F
$$

NMZ009-TXZ055-252000-
NEW MEXICO-WEST TEXAS

CITY           SKY/WX    TMP DP  RH WIND       PRES   REMARKS
ALBUQUERQUE    SUNNY     72  38  29 SW3       30.29F
EL PASO        SUNNY     79  48  33 CALM      30.21F
$$


........................KEY........................
SKY/WX - SKY CONDITION/WEATHER
TMP    - TEMPERATURE IN FAHRENHEIT
DP     - DEW POINT IN FAHRENHEIT
RH     - RELATIVE HUMIDITY IN PERCENT
WIND   - DIRECTION AND SPEED IN MILES PER HOUR (MPH)
VRB    - VARIABLE WIND DIRECTION
PRES   - MEAN SEA LEVEL PRESSURE IN INCHES OF MERCURY
         F - FALLING PRESSURE   R - RISING PRESSURE
         S - STEADY PRESSURE
VSB    - VISIBILITY IN MILES
HX     - HEAT INDEX IN FAHRENHEIT
WCI    - WIND CHILL INDEX IN FAHRENHEIT
TC     - TEMPERATURE IN CELSIUS WHICH IS ALSO KNOWN AS
         TEMPERATURE IN CENTIGRADE
AFB    - AIR FORCE BASE
         LUKE AFB IS LUKE AIR FORCE BASE
         DAVIS-MONTHAN IS DAVIS-MONTHAN AIR FORCE BASE
NAS    - NAVAL AIR STATION
         EL CENTRO NAS IS EL CENTRO NAVAL AIR STATION
N/A    - NOT AVAILABLE



USA.gov is the U.S. government's official web portal to all federal, state and local government web resources and services.